www.pogodaiklimat.ru

Погода и климат >> Архив погоды >> Россия >> город Москва >> Москва (Балчуг)


ПОГОДА в Москве (Балчуг)

  • Прогноз погоды в Москве (Балчуг)
  • Монитор погоды в Москве (Балчуг)

АРХИВ ПОГОДЫ в Москве (Балчуг)

Время (UTC), дата Ветер
(напр.,м/с)
 
Видим.   Явления Облачность Т
(С)
Тd
(С)
f
(%)
Тe
(С)
Тes
(С)
Комфортность P
(гПа)
Po
(гПа)
Тmin
(С)
Tmax
(С)
R
(мм)
R24
(мм)
S
(см)
06 15.08 ЮЗ 1 10 км {ливн. осадки} 1/1 1000 м
[Cu hum]
+23.3 +16.5 66 +28 +35 душно 1006.9 992.7 +16.5 0.8
09 15.08 З 2 10 км 8/8 1000 м
[Cu Sc]
+22.4 +15.7 66 +26 +29 жарко 1009.0 994.7
12 15.08 СЗ 3 10 км 9/9 1000 м
[Cu Sc]
+20.4 +12.1 59 +23 +23 комфорт 1012.0 997.5
15 15.08 СЗ 2 10 км 9/0
[Ac trans Ci fib]
+20.5 +11.2 55 +23 +24 комфорт 1013.0 998.5
18 15.08 С 1 10 км 6/0
[Ci fib]
+18.6 +11.8 65 +20 +20 1013.9 999.3 +25.1
21 15.08 В 1 10 км 8/0
[Ac trans]
+17.3 +12.4 73 +18 +18 1014.8 1000.1
00 16.08 В 1 10 км 9/0
[Ac trans]
+16.4 +11.7 74 +17 +17 1015.4 1000.6
03 16.08 СВ 1 10 км 10/10 1000 м
[Cu Sc]
+15.7 +11.5 76 +16 +16 1015.0 1000.2 +15.7
06 16.08 СВ 1 10 км в посл. час ливневой дождь 10/10 600 м
[Sc]
+15.7 +12.3 80 +16 +16 1014.6 999.9 +15.6 0.5
09 16.08 В 1 10 км слаб. дождь 10/10 300 м
[Sc]
+16.6 +11.5 72 +17 +17 1014.9 1000.2
12 16.08 В 1 10 км {дождь} 10/10 600 м
[Sc]
+18.9 +10.0 56 +21 +21 комфорт 1014.5 999.9
15 16.08 СВ 1 10 км 10/10 600 м
[Sc]
+18.8 +10.0 57 +21 +21 комфорт 1014.1 999.5 0.5
18 16.08 СВ 2 10 км 10/0
[Ac und]
+17.6 +9.3 58 +18 +18 1014.9 1000.2 +19.2 0.0
21 16.08 СВ 1 10 км 9/0
[Cc]
+16.2 +10.1 67 +17 +17 1014.7 1000.0
00 17.08 В 2 10 км 9/0
[Ac und]
+14.9 +9.5 70 +15 +15 1014.6 999.8
03 17.08 В 2 10 км 9/9 1000 м
[Sc]
+14.5 +10.7 78 +14 +14 1014.1 999.3 +14.4
06 17.08 СВ 2 10 км 10/10 1000 м
[Sc]
+16.1 +10.9 71 +16 +16 1013.9 999.2 +14.4
09 17.08 В 2 10 км {дождь} 10/10 1000 м
[Sc]
+16.2 +13.2 82 +16 +16 1013.2 998.5
12 17.08 В 2 10 км {дождь} 10/10 1000 м
[Sc]
+17.0 +13.7 81 +17 +17 1013.6 999.0
15 17.08 СВ 3 10 км 10/10 1000 м
[Sc]
+17.5 +13.6 78 +18 +18 1012.4 997.8 0.5
18 17.08 СВ 2 10 км 10/10 1000 м
[Sc]
+16.2 +13.7 85 +16 +16 1011.7 997.0 +17.5 0.5
21 17.08 СВ 2 4000 м дымка 10/10 1000 м
[Sc]
+15.6 +13.9 90 +15 +15 1009.1 994.5
00 18.08 В 1 10 км в посл. час дождь 9/9 600 м
[Sc]
+16.4 +15.1 92 +17 +17 1007.7 993.1
03 18.08 ЮВ 1 4000 м слаб. дождь 10/10 600 м
[St]
+17.5 +16.0 91 +19 +19 1006.9 992.4 +15.4 5
06 18.08 ЮВ 1 4000 м слаб. ливневой дождь 10/10 300 м
[Cb cap]
+18.2 +16.7 91 +20 +20 1007.1 992.6 +15.4 7
09 18.08 ЮВ 1 10 км 10/10 600 м
[Sc diur, vesp]
+20.2 +16.9 81 +24 +24 комфорт 1007.9 993.5
12 18.08 ЮВ 1 10 км 9/9 600 м
[Cu med, cong]
+22.3 +15.6 66 +26 +27 жарко 1008.7 994.4
15 18.08 В 1 10 км 9/9 600 м
[Sc diur, vesp]
+20.7 +14.8 69 +25 +25 комфорт 1010.4 996.0 2
18 18.08 ЮВ 1 10 км 9/4 1000 м
[Sc diur, vesp Ci]
+18.6 +14.2 76 +20 +20 1011.5 996.9 +22.8
21 18.08 штиль 0 10 км 10/3 1000 м
[Sc Ac und]
+17.7 +14.3 80 +18 +18 1012.0 997.4
00 19.08 штиль 0 10 км слаб. дождь 10/10 600 м
[Sc]
+16.6 +14.5 87 +16 +16 1012.8 998.1
03 19.08 штиль 0 10 км слаб. ливневой дождь 10/10 300 м
[Cb calv]
+16.1 +14.5 90 +16 +16 1013.9 999.2 +15.8 0.5
06 19.08 штиль 0 10 км {ливн. осадки, дождь} 10/10 600 м
[Cu Sc]
+17.6 +14.0 79 +18 +18 1015.5 1000.8 +15.8 0.5
09 19.08 З 1 10 км 8/8 1000 м
[Cu Sc]
+19.4 +13.6 69 +22 +25 комфорт 1016.6 1002.1
12 19.08 З 1 10 км 8/8 1000 м
[Cu Sc]
+21.1 +13.1 60 +23 +25 комфорт 1017.7 1003.2
15 19.08 З 1 10 км 4/4 1000 м
[Cu Sc]
+21.3 +14.5 65 +24 +25 комфорт 1018.6 1004.1
18 19.08 штиль 0 10 км ясно +18.9 +14.5 76 +20 +20 1019.9 1005.3 +21.5
21 19.08 штиль 0 10 км ясно +17.3 +14.3 83 +17 +17 1020.5 1005.8
00 20.08 штиль 0 4000 м дымка ясно +16.1 +14.0 87 +16 +16 1020.5 1005.7
03 20.08 штиль 0 4000 м дымка ясно +16.1 +14.3 89 +16 +16 1021.5 1006.7 +15.7
06 20.08 штиль 0 10 км ясно +22.5 +14.0 59 +26 +33 жарко 1021.8 1007.3 +15.7
09 20.08 СЗ 1 10 км ясно +27.2 +14.0 44 +29 +42 жарко 1021.2 1006.9
12 20.08 З 1 10 км 6/6 1000 м
[Cu hum]
+28.7 +13.3 39 +30 +34 жарко 1020.7 1006.5
15 20.08 З 1 10 км 3/3 1000 м
[Cu hum]
+27.6 +13.7 42 +29 +30 жарко 1020.9 1006.7
18 20.08 СЗ 1 10 км 8/8 1000 м
[Sc diur, vesp]
+23.9 +16.7 64 +27 +27 жарко 1022.6 1008.2 +28.9
21 20.08 штиль 0 10 км 3/3 1000 м
[Cu hum]
+22.2 +16.5 70 +26 +26 душно 1023.0 1008.5
00 21.08 штиль 0 10 км ясно +20.0 +16.9 82 +22 +22 комфорт 1023.4 1008.8
03 21.08 штиль 0 10 км 8/0
[Ci]
+19.6 +17.1 85 +22 +22 комфорт 1024.6 1009.9 +19.2
06 21.08 В 1 10 км 9/3 1000 м
[Cu hum Ci fib]
+23.4 +17.1 68 +29 +32 душно 1024.9 1010.4 +19.2
09 21.08 СЗ 1 10 км 10/10 1000 м
[Cu Sc]
+24.5 +16.1 59 +28 +28 душно 1024.7 1010.3
12 21.08 В 1 10 км 9/8 1000 м
[Cu hum Ci fib]
+27.1 +15.8 50 +30 +32 душно 1023.9 1009.6
15 21.08 В 1 10 км 9/0
[Cc]
+25.2 +16.2 57 +29 +30 душно 1022.9 1008.6
18 21.08 штиль 0 10 км ясно +22.8 +16.7 68 +27 +27 душно 1022.7 1008.2 +27.3
21 21.08 штиль 0 10 км 9/0
[Ci fib]
+21.3 +17.1 77 +25 +25 комфорт 1021.7 1007.2
00 22.08 штиль 0 10 км ясно +20.3 +17.5 84 +23 +23 комфорт 1021.0 1006.4

 

Местоположение метеостанции Москва (Балчуг) (город Москва, Россия): широта 55.75 долгота 37.63 высота над уровнем моря 125 м.

В архиве по умолчанию представлена погода в Москве (Балчуг) за последнюю неделю. Архивные данные за месяц целиком и за предыдущие месяцы, начиная с января 2011 года, Вы можете получить, выбрав интересующий диапазон дат из раскрывающегося списка и нажав кнопку "Ввод!".


*Определитесь, кто Вы:
робот инопланетянин человек

Внимание! Время в таблицах - всемирное. Для получения местного времени необходимо прибавить поправку, которая равна 3 ч.

Смотрите также архив погоды в соседних городах и на ближайших метеорологических станциях:

Погода в Москве (город Москва, Россия) (9 км)
Погода в Москве (Строгино) (город Москва, Россия) (15 км)
Погода в Немчиновке (город Москва, Россия) (17 км)
Погода в Москве (Тушино) (город Москва, Россия) (17 км)
Погода в Красногорске (Московская область, Россия) (19 км)
Погода в Москве (Бутово) (город Москва, Россия) (21 км)
Погода в Долгопрудном (Московская область, Россия) (21 км)
Погода в Железнодорожном АМС (Московская область, Россия) (21 км)
Погода в Люберцах (Московская область, Россия) (24 км)
Погода в Внуково (Московская область, Россия) (27 км)

Пояснения к столбцам:

Ветер - указаны скорость ветра в м/с - средняя за 10 мин, порывы в срок и между сроками (в фигурных скобках) и направление, откуда дует ветер: С - северный, СВ - северо-восточный, В - восточный, ЮВ - юго-восточный, Ю - южный, ЮЗ - юго-западный, З - западный, СЗ - северо-западный.
Видимость - горизонтальная дальность видимости в метрах или километрах. При видимости от 1 до 10 км при отсутствии осадков обычно наблюдается дымка, при ухудшении видимости до 1 км и менее - туман. В сухую погоду видимость может ухудшаться дымом, пылью или мглою.
Явления - указаны атмосферные явления, наблюдавшиеся в срок или в последний час перед сроком; фигурными скобками обозначены явления, наблюдавшиеся между сроками (за 1-3 часа до срока); квадратными скобками обозначены град или гололедные отложения с указанием их диаметра в мм.
Облачность - указаны через наклонную черту общая и нижняя облачность в баллах и высота нижней границы облаков в метрах; квадратными скобками обозначены формы облаков: Ci - перистые, Cs - перисто-слоистые, Cc - перисто-кучевые, Ac - высококучевые, As - высокослоистые, Sc - слоисто-кучевые, Ns - слоисто-дождевые, Cu - кучевые, Cb - кучево-дождевые. Подробнее классификацию облаков см. в Атласе облаков (PDF).
T - Температура воздуха - температура, измеренная на высоте 2 м над землей.
Td - Температура точки росы - температура, при понижении до которой содержащийся в воздухе водяной пар достигнет насыщения.
f - Относительная влажность воздуха - влажноcть воздуха, измеренная на высоте 2 м над землей.
Te - Эффективная температура - температура, которую ощущает одетый по сезону человек в тени. Характеристика душности погоды. При расчете учитывается влияние влажности воздуха и скорости ветра на теплоощущения человека.
Tes - Эффективная температура на солнце - температура, которую ощущает человек, с поправкой на солнечный нагрев. Характеристика знойности погоды. Зависит от высоты солнца над горизонтом, облачности и скорости ветра. Ночью, в пасмурную погоду, а также при ветре 12 м/с и более поправка равна нулю.
P - Атмосферное давление - приведенное к уровню моря атмосферное давление.
Po - Атмосферное давление - измеренное на уровне метеостанции атмосферное давление.
Tmin - Минимальная температура - минимум температуры воздуха на высоте 2 м над землей.
Tmax - Максимальная температура - максимум температуры воздуха на высоте 2 м над землей.
R - Количество осадков - Количество выпавших осадков за период времени, мм. При наведении курсора мыши на число - период времени, за который выпало указанное количество осадков.
R24 - Количество осадков - Количество выпавших осадков за 24 часа, мм.
S - Снежный покров - Высота снежного покрова, см. При наведении курсора мыши на число - состояние снежного покрова и степень покрытия местности в баллах.